Location: Bergnerzell
(49.1816°N, 10.2565°E)
Time: 01:47:26
(UTC+00:00)

FENGYUN 3A - Pass Details

Date: 23 May 2024
Orbit: 821 x 835 km, 98.6° (Epoch: 13 June)

Event Time Altitude Azimuth Distance (km) Brightness Sun altitude
Rises 02:14:16 0° 12° (NNE) 3,372 8.0 -9.7°
Reaches altitude 10° 02:16:39 10° 9° (N) 2,434 7.1 -9.4°
Maximum altitude 02:21:58 64° 289° (WNW) 909 3.8 -8.8°
Drops below altitude 10° 02:27:15 10° 209° (SSW) 2,414 5.5 -8.2°
Enters shadow 02:27:28 - 209° (SSW) 2,500 5.5 -8.2°
